| time (UTC) | temp F | wind direction | speed MPH | gust MPH | rain 1hr in | rain 24hr in | rain mn in | humidity % | barometer mb |
| 20260504184012 | 64 | 195 | 1.0 | 2.0 | 0.00 | 0.02 | 0.02 | 62 | 1016.0 |
| 20260504183509 | 64 | 196 | 3.0 | 5.0 | 0.00 | 0.02 | 0.02 | 64 | 1016.3 |
| 20260504183007 | 64 | 183 | 5.0 | 7.0 | 0.00 | 0.02 | 0.02 | 64 | 1016.5 |
| 20260504182503 | 65 | 77 | 2.0 | 3.0 | 0.00 | 0.02 | 0.02 | 62 | 1016.6 |
| 20260504182001 | 64 | 77 | 6.0 | 7.0 | 0.00 | 0.02 | 0.02 | 63 | 1016.1 |
| 20260504181457 | 65 | 102 | 3.0 | 3.0 | 0.00 | 0.02 | 0.02 | 63 | 1016.1 |
| 20260504180956 | 63 | 143 | 4.0 | 5.0 | 0.00 | 0.02 | 0.02 | 67 | 1016.5 |
| 20260504180455 | 65 | 278 | 3.0 | 6.0 | 0.00 | 0.02 | 0.02 | 66 | 1016.3 |
| 20260504175953 | 63 | 119 | 5.0 | 7.0 | 0.00 | 0.02 | 0.02 | 68 | 1016.5 |
| 20260504175450 | 63 | 154 | 0.0 | 0.0 | 0.00 | 0.02 | 0.02 | 69 | 1016.3 |
| 20260504174947 | 62 | 209 | 6.0 | 7.0 | 0.00 | 0.02 | 0.02 | 70 | 1016.2 |
| 20260504174444 | 63 | 175 | 6.0 | 7.0 | 0.00 | 0.02 | 0.02 | 67 | 1016.5 |
| 20260504173942 | 64 | 136 | 5.0 | 6.0 | 0.00 | 0.02 | 0.02 | 65 | 1016.5 |
| 20260504173438 | 63 | 166 | 4.0 | 7.0 | 0.00 | 0.02 | 0.02 | 66 | 1016.2 |
| 20260504172936 | 62 | 184 | 2.0 | 2.0 | 0.00 | 0.02 | 0.02 | 67 | 1016.0 |
| 20260504172431 | 62 | 202 | 1.0 | 1.0 | 0.00 | 0.02 | 0.02 | 69 | 1015.9 |
| 20260504171928 | 61 | 137 | 3.0 | 3.0 | 0.00 | 0.02 | 0.02 | 71 | 1016.2 |
| 20260504171425 | 61 | 182 | 3.0 | 3.0 | 0.00 | 0.02 | 0.02 | 73 | 1016.1 |
| 20260504170922 | 61 | 93 | 3.0 | 7.0 | 0.00 | 0.02 | 0.02 | 75 | 1016.0 |
| 20260504170418 | 61 | 193 | 3.0 | 3.0 | 0.00 | 0.02 | 0.02 | 74 | 1015.7 |
| 20260504160337 | 61 | 106 | 2.0 | 3.0 | 0.00 | 0.02 | 0.02 | 77 | 1015.9 |
| 20260504150802 | 57 | 98 | 1.0 | 1.0 | 0.00 | 0.02 | 0.02 | 94 | 1015.7 |
| 20260504150259 | 56 | 101 | 0.0 | 0.0 | 0.00 | 0.02 | 0.02 | 96 | 1015.5 |
| 20260504141229 | 54 | 112 | 0.0 | 0.0 | 0.05 | 0.02 | 0.02 | 96 | 1015.3 |
| 20260504140725 | 53 | 130 | 0.0 | 0.0 | 0.00 | 0.01 | 0.01 | 96 | 1015.2 |
| 20260504140221 | 53 | 132 | 0.0 | 0.0 | 0.00 | 0.01 | 0.01 | 96 | 1015.6 |
| 20260504130649 | 52 | 154 | 0.0 | 0.0 | 0.00 | 0.01 | 0.01 | 96 | 1015.1 |
| 20260504130146 | 53 | 156 | 0.0 | 0.0 | 0.00 | 0.01 | 0.01 | 96 | 1014.9 |
| 20260504120110 | 54 | 187 | 1.0 | 1.0 | 0.00 | 0.01 | 0.01 | 94 | 1014.6 |
| 20260504110537 | 56 | 182 | 0.0 | 0.0 | 0.00 | 0.01 | 0.01 | 92 | 1014.8 |
| 20260504100454 | 56 | 183 | 1.0 | 2.0 | 0.00 | 0.01 | 0.01 | 91 | 1014.4 |
| 20260504081847 | 59 | 199 | 1.0 | 2.0 | 0.00 | 0.00 | 0.00 | 85 | 1014.9 |
| 20260504081343 | 59 | 180 | 1.0 | 1.0 | 0.00 | 0.00 | 0.00 | 85 | 1015.2 |
| 20260504080839 | 59 | 179 | 4.0 | 5.0 | 0.00 | 0.00 | 0.00 | 84 | 1015.5 |
| 20260504080337 | 59 | 182 | 1.0 | 1.0 | 0.00 | 0.00 | 0.00 | 84 | 1015.5 |
| 20260504070304 | 60 | 169 | 3.0 | 3.0 | 0.00 | 0.00 | 0.00 | 82 | 1015.5 |
| 20260504060224 | 60 | 139 | 0.0 | 0.0 | 0.00 | 0.00 | 0.00 | 78 | 1014.9 |
| 20260504050652 | 60 | 128 | 0.0 | 0.0 | 0.00 | 0.00 | 0.00 | 76 | 1015.2 |
| 20260504050149 | 60 | 165 | 2.0 | 2.0 | 0.00 | 0.00 | 0.00 | 77 | 1015.2 |
| 20260504045646 | 60 | 127 | 0.0 | 0.0 | 0.00 | 0.00 | 0.00 | 77 | 1015.1 |
| 20260504045146 | 60 | 170 | 0.0 | 0.0 | 0.00 | 0.00 | 0.00 | 77 | 1015.1 |
| 20260504044644 | 60 | 137 | 1.0 | 1.0 | 0.00 | 0.00 | 0.00 | 76 | 1014.9 |
| 20260504044141 | 60 | 154 | 0.0 | 1.0 | 0.00 | 0.00 | 0.00 | 76 | 1014.9 |
| 20260504043638 | 60 | 124 | 1.0 | 1.0 | 0.00 | 0.00 | 0.00 | 76 | 1014.7 |
| 20260504043135 | 60 | 133 | 1.0 | 1.0 | 0.00 | 0.00 | 0.00 | 76 | 1014.8 |
| 20260504042632 | 60 | 129 | 1.0 | 1.0 | 0.00 | 0.00 | 0.00 | 76 | 1014.8 |
| 20260504042129 | 60 | 120 | 1.0 | 1.0 | 0.00 | 0.00 | 0.00 | 76 | 1015.0 |
| 20260504041625 | 60 | 122 | 1.0 | 1.0 | 0.00 | 0.00 | 0.00 | 76 | 1014.7 |
| 20260504041121 | 60 | 146 | 2.0 | 2.0 | 0.00 | 0.00 | 0.00 | 76 | 1014.8 |
| 20260504040618 | 60 | 135 | 2.0 | 2.0 | 0.00 | 0.00 | 0.00 | 76 | 1014.7 |
| 20260504040115 | 60 | 165 | 1.0 | 1.0 | 0.00 | 0.00 | 0.00 | 76 | 1014.5 |
| 20260504035612 | 60 | 126 | 1.0 | 1.0 | 0.00 | 0.00 | 0.00 | 76 | 1014.6 |
| 20260504035108 | 60 | 131 | 1.0 | 2.0 | 0.00 | 0.00 | 0.00 | 75 | 1014.8 |
| 20260504034606 | 60 | 174 | 1.0 | 1.0 | 0.00 | 0.00 | 0.00 | 75 | 1014.9 |
| 20260504034103 | 60 | 126 | 1.0 | 1.0 | 0.00 | 0.00 | 0.00 | 75 | 1014.5 |
| 20260504033601 | 60 | 113 | 2.0 | 2.0 | 0.00 | 0.00 | 0.00 | 75 | 1014.5 |
| 20260504033058 | 60 | 159 | 2.0 | 2.0 | 0.00 | 0.00 | 0.00 | 75 | 1014.7 |
| 20260504032555 | 60 | 165 | 1.0 | 1.0 | 0.00 | 0.00 | 0.00 | 75 | 1014.6 |
| 20260504032052 | 60 | 111 | 1.0 | 1.0 | 0.00 | 0.00 | 0.00 | 75 | 1014.6 |
| 20260504031548 | 60 | 141 | 0.0 | 1.0 | 0.00 | 0.00 | 0.00 | 75 | 1014.4 |
| 20260504031044 | 60 | 145 | 1.0 | 1.0 | 0.00 | 0.00 | 0.00 | 75 | 1014.5 |
| 20260504030542 | 60 | 129 | 1.0 | 2.0 | 0.00 | 0.00 | 0.00 | 75 | 1014.4 |
| 20260504030038 | 60 | 120 | 3.0 | 3.0 | 0.00 | 0.00 | 0.00 | 74 | 1014.4 |
| 20260504025535 | 60 | 109 | 3.0 | 3.0 | 0.00 | 0.00 | 0.00 | 74 | 1014.3 |
| 20260504025032 | 60 | 160 | 0.0 | 0.0 | 0.00 | 0.00 | 0.00 | 74 | 1014.1 |
| 20260504024529 | 60 | 162 | 0.0 | 1.0 | 0.00 | 0.00 | 0.00 | 74 | 1014.1 |
| 20260504024026 | 60 | 100 | 1.0 | 2.0 | 0.00 | 0.00 | 0.00 | 73 | 1014.2 |
| 20260504023522 | 60 | 121 | 0.0 | 1.0 | 0.00 | 0.00 | 0.00 | 73 | 1014.1 |
| 20260504023018 | 60 | 125 | 1.0 | 2.0 | 0.00 | 0.00 | 0.00 | 73 | 1014.1 |
| 20260504022514 | 60 | 219 | 1.0 | 2.0 | 0.00 | 0.00 | 0.00 | 73 | 1014.1 |
| 20260504022011 | 60 | 120 | 3.0 | 5.0 | 0.00 | 0.00 | 0.00 | 72 | 1014.3 |
| 20260504021509 | 61 | 182 | 4.0 | 5.0 | 0.00 | 0.00 | 0.00 | 72 | 1014.3 |
| 20260504021006 | 61 | 164 | 1.0 | 1.0 | 0.00 | 0.00 | 0.00 | 71 | 1014.1 |
| 20260504020502 | 61 | 104 | 1.0 | 1.0 | 0.00 | 0.00 | 0.00 | 71 | 1014.0 |
| 20260504015959 | 61 | 182 | 3.0 | 5.0 | 0.00 | 0.00 | 0.00 | 71 | 1014.1 |
| 20260504015455 | 61 | 131 | 3.0 | 3.0 | 0.00 | 0.00 | 0.00 | 71 | 1014.0 |
| 20260504014951 | 61 | 148 | 3.0 | 3.0 | 0.00 | 0.00 | 0.00 | 71 | 1014.0 |
| 20260504014447 | 61 | 183 | 2.0 | 2.0 | 0.00 | 0.00 | 0.00 | 72 | 1013.7 |
| 20260504013944 | 61 | 167 | 2.0 | 2.0 | 0.00 | 0.00 | 0.00 | 72 | 1013.7 |
| 20260504013443 | 61 | 152 | 4.0 | 5.0 | 0.00 | 0.00 | 0.00 | 71 | 1014.2 |
| 20260504012938 | 61 | 138 | 3.0 | 3.0 | 0.00 | 0.00 | 0.00 | 70 | 1013.7 |
| 20260504012437 | 61 | 62 | 4.0 | 5.0 | 0.00 | 0.00 | 0.00 | 70 | 1013.5 |
| 20260504011934 | 61 | 204 | 1.0 | 2.0 | 0.00 | 0.00 | 0.00 | 70 | 1013.7 |
| 20260504011430 | 61 | 164 | 3.0 | 7.0 | 0.00 | 0.00 | 0.00 | 69 | 1013.7 |
| 20260504010926 | 61 | 219 | 3.0 | 5.0 | 0.00 | 0.00 | 0.00 | 68 | 1013.5 |
| 20260504010422 | 62 | 108 | 6.0 | 8.0 | 0.00 | 0.00 | 0.00 | 67 | 1013.4 |
| 20260504005919 | 62 | 65 | 4.0 | 7.0 | 0.00 | 0.00 | 0.00 | 69 | 1013.6 |
| 20260504005415 | 62 | 90 | 2.0 | 2.0 | 0.00 | 0.00 | 0.00 | 69 | 1013.2 |
| 20260504004913 | 62 | 93 | 5.0 | 6.0 | 0.00 | 0.00 | 0.00 | 68 | 1013.2 |
| 20260504004411 | 62 | 159 | 4.0 | 6.0 | 0.00 | 0.00 | 0.00 | 68 | 1013.1 |
| 20260504003908 | 62 | 165 | 3.0 | 3.0 | 0.00 | 0.00 | 0.00 | 67 | 1013.5 |
| 20260504003404 | 63 | 214 | 2.0 | 2.0 | 0.00 | 0.00 | 0.00 | 66 | 1013.2 |
| 20260504002900 | 63 | 156 | 2.0 | 3.0 | 0.00 | 0.00 | 0.00 | 65 | 1013.1 |
| 20260504002357 | 65 | 149 | 4.0 | 6.0 | 0.00 | 0.00 | 0.00 | 63 | 1013.0 |
| 20260504001855 | 65 | 34 | 5.0 | 6.0 | 0.00 | 0.00 | 0.00 | 63 | 1012.8 |
| 20260504001352 | 65 | 95 | 4.0 | 7.0 | 0.00 | 0.00 | 0.00 | 62 | 1013.0 |
| 20260504000849 | 66 | 149 | 5.0 | 6.0 | 0.00 | 0.00 | 0.00 | 59 | 1012.9 |
| 20260504000346 | 67 | 242 | 3.0 | 3.0 | 0.00 | 0.00 | 0.00 | 59 | 1012.9 |
| 20260503235843 | 66 | 133 | 4.0 | 6.0 | 0.00 | 0.00 | 0.00 | 59 | 1012.6 |
| 20260503235341 | 66 | 114 | 3.0 | 3.0 | 0.00 | 0.00 | 0.00 | 61 | 1012.8 |
| 20260503234838 | 67 | 185 | 3.0 | 5.0 | 0.00 | 0.00 | 0.00 | 59 | 1012.7 |
| 20260503234336 | 68 | 156 | 4.0 | 5.0 | 0.00 | 0.00 | 0.00 | 58 | 1012.7 |
| 20260503233833 | 68 | 209 | 3.0 | 7.0 | 0.00 | 0.00 | 0.00 | 57 | 1012.6 |
| 20260503233329 | 68 | 76 | 3.0 | 3.0 | 0.00 | 0.00 | 0.00 | 59 | 1012.5 |
| 20260503232826 | 69 | 159 | 3.0 | 6.0 | 0.00 | 0.00 | 0.00 | 57 | 1012.7 |
| 20260503232323 | 68 | 164 | 2.0 | 2.0 | 0.00 | 0.00 | 0.00 | 58 | 1012.6 |
| 20260503231821 | 67 | 112 | 7.0 | 8.0 | 0.00 | 0.00 | 0.00 | 59 | 1012.6 |
| 20260503231318 | 68 | 103 | 5.0 | 6.0 | 0.00 | 0.00 | 0.00 | 60 | 1012.8 |
| 20260503230814 | 67 | 158 | 5.0 | 7.0 | 0.00 | 0.00 | 0.00 | 59 | 1012.9 |
| 20260503230311 | 67 | 119 | 5.0 | 8.0 | 0.00 | 0.00 | 0.00 | 60 | 1012.8 |
| 20260503225809 | 67 | 132 | 4.0 | 5.0 | 0.00 | 0.00 | 0.00 | 60 | 1012.8 |
| 20260503225304 | 69 | 57 | 6.0 | 8.0 | 0.00 | 0.00 | 0.00 | 58 | 1012.8 |
| 20260503224801 | 69 | 185 | 3.0 | 3.0 | 0.00 | 0.00 | 0.00 | 57 | 1013.0 |
| 20260503224258 | 68 | 52 | 1.0 | 1.0 | 0.00 | 0.00 | 0.00 | 58 | 1012.7 |
| 20260503223756 | 67 | 126 | 3.0 | 5.0 | 0.00 | 0.00 | 0.00 | 59 | 1012.9 |
| 20260503223253 | 68 | 176 | 1.0 | 2.0 | 0.00 | 0.00 | 0.00 | 59 | 1013.0 |
| 20260503222749 | 68 | 170 | 1.0 | 2.0 | 0.00 | 0.00 | 0.00 | 59 | 1012.9 |
| 20260503222247 | 68 | 103 | 2.0 | 2.0 | 0.00 | 0.00 | 0.00 | 60 | 1013.1 |
| 20260503221746 | 68 | 161 | 3.0 | 3.0 | 0.00 | 0.00 | 0.00 | 61 | 1013.3 |
| 20260503221243 | 67 | 147 | 5.0 | 6.0 | 0.00 | 0.00 | 0.00 | 62 | 1013.2 |
| 20260503220739 | 69 | 80 | 4.0 | 5.0 | 0.00 | 0.00 | 0.00 | 60 | 1013.2 |
| 20260503220236 | 67 | 130 | 3.0 | 5.0 | 0.00 | 0.00 | 0.00 | 63 | 1013.5 |
| 20260503215733 | 66 | 116 | 1.0 | 2.0 | 0.00 | 0.00 | 0.00 | 65 | 1013.5 |
| 20260503215230 | 66 | 183 | 3.0 | 3.0 | 0.00 | 0.00 | 0.00 | 65 | 1013.5 |
| 20260503214728 | 66 | 103 | 3.0 | 3.0 | 0.00 | 0.00 | 0.00 | 65 | 1013.4 |
| 20260503214225 | 67 | 187 | 0.0 | 1.0 | 0.00 | 0.00 | 0.00 | 65 | 1013.7 |
| 20260503213723 | 68 | 185 | 4.0 | 7.0 | 0.00 | 0.00 | 0.00 | 63 | 1013.6 |
| 20260503213220 | 66 | 250 | 3.0 | 5.0 | 0.00 | 0.00 | 0.00 | 66 | 1013.4 |
| 20260503212716 | 67 | 171 | 2.0 | 2.0 | 0.00 | 0.00 | 0.00 | 65 | 1013.7 |
| 20260503212214 | 67 | 132 | 1.0 | 1.0 | 0.00 | 0.00 | 0.00 | 66 | 1013.6 |
| 20260503211712 | 65 | 142 | 5.0 | 6.0 | 0.00 | 0.00 | 0.00 | 68 | 1013.6 |
| 20260503211208 | 66 | 161 | 3.0 | 3.0 | 0.00 | 0.00 | 0.00 | 67 | 1013.7 |
| 20260503210703 | 66 | 187 | 2.0 | 3.0 | 0.00 | 0.00 | 0.00 | 67 | 1013.8 |
| 20260503210201 | 66 | 145 | 2.0 | 2.0 | 0.00 | 0.00 | 0.00 | 66 | 1013.8 |
| 20260503205656 | 65 | 203 | 3.0 | 3.0 | 0.00 | 0.00 | 0.00 | 67 | 1013.6 |
| 20260503205152 | 65 | 165 | 3.0 | 3.0 | 0.00 | 0.00 | 0.00 | 68 | 1013.8 |
| 20260503204649 | 64 | 310 | 2.0 | 3.0 | 0.00 | 0.00 | 0.00 | 69 | 1013.6 |
| 20260503204147 | 64 | 134 | 2.0 | 3.0 | 0.00 | 0.00 | 0.00 | 69 | 1013.9 |
| 20260503203643 | 65 | 95 | 2.0 | 3.0 | 0.00 | 0.00 | 0.00 | 68 | 1013.9 |
| 20260503203141 | 64 | 74 | 2.0 | 3.0 | 0.00 | 0.00 | 0.00 | 70 | 1013.9 |
| 20260503202638 | 65 | 191 | 5.0 | 7.0 | 0.00 | 0.00 | 0.00 | 68 | 1013.9 |
| 20260503202137 | 64 | 193 | 3.0 | 3.0 | 0.00 | 0.00 | 0.00 | 69 | 1014.0 |
| 20260503201634 | 65 | 156 | 3.0 | 5.0 | 0.00 | 0.00 | 0.00 | 68 | 1013.9 |
| 20260503201131 | 65 | 170 | 1.0 | 1.0 | 0.00 | 0.00 | 0.00 | 67 | 1014.0 |
| 20260503200627 | 65 | 228 | 3.0 | 5.0 | 0.00 | 0.00 | 0.00 | 68 | 1014.0 |
| 20260503200124 | 66 | 143 | 4.0 | 5.0 | 0.00 | 0.00 | 0.00 | 67 | 1014.0 |
| 20260503195621 | 67 | 93 | 7.0 | 8.0 | 0.00 | 0.00 | 0.00 | 66 | 1014.2 |
| 20260503195118 | 67 | 172 | 2.0 | 2.0 | 0.00 | 0.00 | 0.00 | 67 | 1014.0 |
| 20260503194615 | 67 | 205 | 3.0 | 5.0 | 0.00 | 0.00 | 0.00 | 67 | 1014.0 |
| 20260503194110 | 67 | 89 | 4.0 | 6.0 | 0.00 | 0.00 | 0.00 | 66 | 1014.1 |
| 20260503193607 | 66 | 165 | 4.0 | 5.0 | 0.00 | 0.00 | 0.00 | 68 | 1014.1 |
| 20260503193102 | 66 | 197 | 4.0 | 6.0 | 0.00 | 0.00 | 0.00 | 69 | 1014.1 |
| 20260503192558 | 66 | 167 | 4.0 | 5.0 | 0.00 | 0.00 | 0.00 | 69 | 1014.2 |
| 20260503192054 | 66 | 192 | 3.0 | 5.0 | 0.00 | 0.00 | 0.00 | 68 | 1014.1 |
| 20260503191551 | 65 | 51 | 3.0 | 3.0 | 0.00 | 0.00 | 0.00 | 69 | 1014.1 |
| 20260503191048 | 64 | 172 | 3.0 | 3.0 | 0.00 | 0.00 | 0.00 | 70 | 1014.1 |
| 20260503190545 | 64 | 114 | 4.0 | 5.0 | 0.00 | 0.00 | 0.00 | 72 | 1014.4 |
| 20260503190042 | 63 | 120 | 4.0 | 6.0 | 0.00 | 0.00 | 0.00 | 73 | 1014.3 |
| 20260503185533 | 63 | 165 | 3.0 | 3.0 | 0.00 | 0.00 | 0.00 | 74 | 1014.4 |
| 20260503185032 | 63 | 121 | 4.0 | 6.0 | 0.00 | 0.00 | 0.00 | 75 | 1014.4 |
| 20260503184529 | 63 | 116 | 2.0 | 3.0 | 0.00 | 0.00 | 0.00 | 76 | 1014.4 |